Location: ?????????
(54.7630°N, 39.4991°E)
Time: 07:14:48
(UTC+00:00)

Terra - Pass Details

Date: 14 April 2026
Orbit: 688 x 691 km, 97.9° (Epoch: 13 May)

Event Time Altitude Azimuth Distance (km) Brightness Sun altitude
Exits shadow 19:14:39 - 220° (SW) 3,096 5.0 -20.3°
Rises 19:14:47 0° 220° (SW) 3,054 5.0 -20.3°
Reaches altitude 10° 19:18:17 10° 248° (WSW) 2,144 4.4 -20.6°
Maximum altitude 19:20:27 13° 276° (W) 1,946 4.6 -20.7°
Drops below altitude 10° 19:22:38 10° 304° (NW) 2,151 5.3 -20.9°
Sets 19:26:10 0° 332° (NNW) 3,074 6.7 -21.1°
